This is the latest recevied weather packets stored in our database for station/object N1IJV-10. If no packets are shown the sender has not sent any weather packets the latest 10 day(s).
| Time | Temp. | Humidity | Pressure | Rain* | Wind** | Luminosity | Snow |
|---|---|---|---|---|---|---|---|
| 1778059314 | 4.44° C | 82% | 1011.1 hPa | 0 mm | - | 0 W/m² | - |
| 1778059012 | 4.44° C | 82% | 1011 hPa | 0 mm | - | 0 W/m² | - |
| 1778058709 | 4.44° C | 82% | 1011 hPa | 0 mm | - | 0 W/m² | - |
| 1778058407 | 4.44° C | 82% | 1010.9 hPa | 0 mm | - | 0 W/m² | - |
| 1778058103 | 4.44° C | 79% | 1011 hPa | 0 mm | - | 0 W/m² | - |
| 1778057800 | 3.89° C | 79% | 1011 hPa | 0 mm | - | 0 W/m² | - |
| 1778057497 | 3.89° C | 79% | 1011.1 hPa | 0 mm | - | 0 W/m² | - |
| 1778057193 | 3.89° C | 80% | 1011.1 hPa | 0 mm | - | 0 W/m² | - |
| 1778056890 | 4.44° C | 79% | 1011 hPa | 0 mm | - | 0 W/m² | - |
| 1778056587 | 4.44° C | 77% | 1010.9 hPa | 0 mm | - | 0 W/m² | - |
| 1778056285 | 4.44° C | 76% | 1010.8 hPa | 0 mm | - | 0 W/m² | - |
| 1778055981 | 3.89° C | 78% | 1010.8 hPa | 0 mm | - | 0 W/m² | - |
| 1778055677 | 4.44° C | 78% | 1010.7 hPa | 0 mm | - | 0 W/m² | - |
| 1778055375 | 4.44° C | 77% | 1010.6 hPa | 0 mm | - | 0 W/m² | - |
| 1778055073 | 4.44° C | 76% | 1010.8 hPa | 0 mm | - | 0 W/m² | - |
| 1778054770 | 4.44° C | 75% | 1010.7 hPa | 0 mm | - | 0 W/m² | - |
| 1778054467 | 5° C | 74% | 1010.8 hPa | 0 mm | - | 0 W/m² | - |
| 1778054165 | 5° C | 72% | 1010.7 hPa | 0 mm | - | 0 W/m² | - |
| 1778053861 | 5° C | 71% | 1010.4 hPa | 0 mm | - | 0 W/m² | - |
| 1778053559 | 5° C | 70% | 1010.8 hPa | 0 mm | - | 0 W/m² | - |
| 1778053256 | 5.56° C | 70% | 1010.6 hPa | 0 mm | - | 0 W/m² | - |
| 1778052954 | 5.56° C | 69% | 1010.7 hPa | 0 mm | - | 0 W/m² | - |
| 1778052651 | 6.11° C | 69% | 1010.6 hPa | 0 mm | - | 0 W/m² | - |
| 1778052347 | 6.11° C | 67% | 1010.4 hPa | 0 mm | - | 0 W/m² | - |
| 1778052045 | 6.67° C | 64% | 1010.2 hPa | 0 mm | - | 0 W/m² | - |
* Rain latest hour (hover to see other rain measurements)
** Current wind speed in m/s (hover to see current wind gust speed)